TimeMST,TemperatureF,Dew PointF,Humidity,Sea Level PressureIn,VisibilityMPH,Wind Direction,Wind SpeedMPH,Gust SpeedMPH,PrecipitationIn,Events,Conditions,WindDirDegrees,DateUTC
12:53 AM,44.1,32.0,63,30.18,10.0,WNW,13.8,-,N/A,,Mostly Cloudy,290,2013-12-24 07:53:00
1:53 AM,39.9,33.1,77,30.24,10.0,West,28.8,35.7,N/A,,Overcast,260,2013-12-24 08:53:00
2:09 AM,39.9,33.1,77,30.28,10.0,West,25.3,35.7,N/A,,Overcast,260,2013-12-24 09:09:00
2:37 AM,39.9,33.1,77,30.30,10.0,West,26.5,38.0,N/A,,Overcast,260,2013-12-24 09:37:00
2:53 AM,39.9,32.0,73,30.26,10.0,WSW,26.5,31.1,N/A,,Overcast,250,2013-12-24 09:53:00
3:53 AM,37.9,28.0,68,30.28,10.0,WSW,26.5,34.5,0.00,,Partly Cloudy,250,2013-12-24 10:53:00
4:53 AM,36.0,24.1,62,30.32,10.0,WSW,25.3,-,N/A,,Clear,240,2013-12-24 11:53:00
5:53 AM,34.0,23.0,64,30.37,10.0,WSW,20.7,-,N/A,,Clear,240,2013-12-24 12:53:00
6:53 AM,33.1,21.9,64,30.39,10.0,WSW,20.7,-,N/A,,Clear,240,2013-12-24 13:53:00
7:53 AM,33.1,19.9,59,30.40,10.0,WSW,18.4,28.8,N/A,,Clear,240,2013-12-24 14:53:00
8:53 AM,33.1,19.9,59,30.44,10.0,SW,17.3,-,N/A,,Clear,230,2013-12-24 15:53:00
9:53 AM,36.0,21.0,55,30.46,10.0,WSW,16.1,-,N/A,,Clear,240,2013-12-24 16:53:00
10:53 AM,37.9,19.9,48,30.46,10.0,WSW,23.0,27.6,N/A,,Clear,240,2013-12-24 17:53:00
11:53 AM,39.0,19.9,46,30.45,10.0,WSW,16.1,25.3,N/A,,Clear,250,2013-12-24 18:53:00
12:53 PM,41.0,19.0,41,30.44,10.0,West,17.3,-,N/A,,Clear,260,2013-12-24 19:53:00
1:53 PM,41.0,18.0,40,30.44,10.0,West,19.6,-,N/A,,Clear,260,2013-12-24 20:53:00
2:53 PM,42.1,19.0,40,30.45,10.0,West,13.8,-,N/A,,Clear,260,2013-12-24 21:53:00
3:53 PM,39.9,19.9,45,30.47,10.0,West,12.7,-,N/A,,Clear,270,2013-12-24 22:53:00
4:53 PM,36.0,21.0,55,30.49,10.0,West,10.4,-,N/A,,Clear,270,2013-12-24 23:53:00
5:53 PM,30.9,19.9,64,30.51,10.0,WSW,10.4,-,N/A,,Clear,240,2013-12-25 00:53:00
6:53 PM,30.9,21.0,67,30.52,10.0,SW,9.2,-,N/A,,Clear,220,2013-12-25 01:53:00
7:53 PM,30.0,21.9,72,30.53,10.0,SSW,10.4,-,N/A,,Clear,210,2013-12-25 02:53:00
8:53 PM,30.0,21.0,69,30.53,10.0,SSW,9.2,-,N/A,,Clear,200,2013-12-25 03:53:00
9:53 PM,28.0,19.9,72,30.53,10.0,South,10.4,-,N/A,,Clear,190,2013-12-25 04:53:00
10:53 PM,30.9,19.9,64,30.51,10.0,SSW,10.4,-,N/A,,Clear,200,2013-12-25 05:53:00
11:53 PM,30.9,17.1,57,30.52,10.0,South,12.7,-,N/A,,Clear,190,2013-12-25 06:53:00